495  
ASUS46 KPQR 290010  
RWROR  
 
OREGON REGIONAL WEATHER ROUNDUP  
NATIONAL WEATHER SERVICE PORTLAND OR  
500 PM PDT WED JUN 28 2017  
 
NOTE: "FAIR" INDICATES FEW OR NO CLOUDS BELOW 12,000 FEET WITH  
NO SIGNIFICANT WEATHER AND/OR S TO VISIBILITY
.  
 
ORZ001>013-290100-  
NORTHWEST OREGON  
 
 
CITY SKY/WX TMP DP RH WIND PRES REMARKS
 
ASTORIA CLOUDY 62 50 64 W8 30.09S  
6HR MIN TEMP: 58; 6HR MAX TEMP: 63;  
 
NEWPORT SUNNY 61 54 77 NW13 30.13S  
PORTLAND MOSUNNY 72 51 47 NE5 30.04S  
6HR MIN TEMP: 61; 6HR MAX TEMP: 73;  
 
VANCOUVER WA PTSUNNY 72 52 49 MISG 30.04S  
6HR MIN TEMP: 62; 6HR MAX TEMP: 72;  
 
SCAPPOOSE SUNNY 69 54 58 E10 30.04S  
6HR MIN TEMP: 61; 6HR MAX TEMP: 70;  
 
HILLSBORO MOSUNNY 73 51 46 VRB6 30.03F  
6HR MIN TEMP: 62; 6HR MAX TEMP: 73;  
 
AURORA MOSUNNY 73 50 44 CALM 30.04F  
6HR MIN TEMP: 61; 6HR MAX TEMP: 74;  
 
MCMINNVILLE MOSUNNY 75 52 44 E7 30.03F  
6HR MIN TEMP: 62; 6HR MAX TEMP: 75;  
 
SALEM MOSUNNY 72 50 45 SE6 30.02F  
6HR MIN TEMP: 60; 6HR MAX TEMP: 75;  
 
CORVALLIS SUNNY 75 52 43 NW3 30.04F  
EUGENE MOSUNNY 73 52 47 N3 30.03F  
6HR MIN TEMP: 55; 6HR MAX TEMP: 73;  
 

 
 
ORZ021-028-290100-  
SOUTHWEST OREGON  
 
 
CITY SKY/WX TMP DP RH WIND PRES REMARKS
 
NORTH BEND SUNNY 63 54 72 N22G29 30.09S  
6HR MIN TEMP: 63; 6HR MAX TEMP: 64;  
 
BROOKINGS SUNNY 64 54 69 VRB6 29.97S  
ROSEBURG SUNNY 76 47 35 N10 30.00F  
6HR MIN TEMP: 64; 6HR MAX TEMP: 77;  
 
SEXTON SUMMIT SUNNY 69 39 33 VRB5 30.07S  
6HR MIN TEMP: 60; 6HR MAX TEMP: 71;  
 
GRANTS PASS FAIR 82 39 21 N9G16 29.98S  
MEDFORD SUNNY 87 46 24 W7 29.91F  
6HR MIN TEMP: 71; 6HR MAX TEMP: 87;  
 

 
 
ORZ014>016-041-290100-  
COLUMBIA GORGE  
 
 
CITY SKY/WX TMP DP RH WIND PRES REMARKS
 
TROUTDALE MOSUNNY 72 50 45 N5 30.04S  
6HR MIN TEMP: 62; 6HR MAX TEMP: 73;  
 
HOOD RIVER MOSUNNY 70 48 46 W10 29.98S  
THE DALLES SUNNY 76 48 37 NW23 29.90F  
6HR MIN TEMP: 71; 6HR MAX TEMP: 78;  
 

 
 
ORZ029>031-041-044-049-050-061>064-502-503-505>511-290100-  
EASTERN OREGON  
 
 
CITY SKY/WX TMP DP RH WIND PRES REMARKS
 
MADRAS SUNNY 79 32 18 NW23 29.95S  
REDMOND SUNNY 80 23 12 NW9G23 29.96R  
6HR MIN TEMP: 71; 6HR MAX TEMP: 83;  
 
BEND SUNNY 79 32 18 NW14G24 29.97S  
PRINEVILLE SUNNY 79 34 19 NW16 29.96S  
KLAMATH FALLS SUNNY 81 30 15 N15G21 30.00R  
6HR MIN TEMP: 71; 6HR MAX TEMP: 82;  
 
LAKEVIEW SUNNY 80 24 12 W15G21 30.00F  
HERMISTON SUNNY 85 41 21 W18 29.80S  
6HR MIN TEMP: 75; 6HR MAX TEMP: 87;  
 
PENDLETON SUNNY 82 38 20 W13G24 29.83F  
6HR MIN TEMP: 73; 6HR MAX TEMP: 83;  
 
JOHN DAY SUNNY 80 21 11 W16 29.93F  
MEACHAM SUNNY 73 28 18 W7 29.95S  
6HR MIN TEMP: 64; 6HR MAX TEMP: 73;  
 
LA GRANDE SUNNY 79 39 24 NW12G22 29.88S  
6HR MIN TEMP: 73; 6HR MAX TEMP: 81;  
 
BAKER CITY NOT AVBL  
BURNS SUNNY 79 9 7 W14G28 29.94S  
6HR MIN TEMP: 69; 6HR MAX TEMP: 81;  
 
ROME N/A 86 0 4 W13G25 29.90S  
6HR MIN TEMP: 79; 6HR MAX TEMP: 88;  
 
ONTARIO SUNNY 87 30 13 E6 29.80F  
6HR MIN TEMP: 79; 6HR MAX TEMP: 88;  
 

 
 
 
CLICK HERE TO GO TO PREVIOUS BULLETINS.

The Nexlab OR Page Main Text Page